Location: Poughquag
(41.6090°N, 73.6820°W)
Time: 11:54:37
(UTC-04:00)

Vanguard 2 Rocket - Pass Details

Date: 02 June 2020
Orbit: 556 x 3324 km, 32.9° (Epoch: 06 July)

Event Time Altitude Azimuth Distance (km) Brightness Sun altitude
Rises 18:04:52 0° 265° (W) 4,272 11.6 23.3°
Reaches altitude 10° 18:07:20 10° 260° (W) 3,585 11.4 22.9°
Maximum altitude 18:16:44 53° 187° (S) 2,483 9.4 21.2°
Drops below altitude 10° 18:32:39 10° 117° (ESE) 5,841 10.5 18.3°
Sets 18:37:57 0° 114° (ESE) 7,106 10.8 17.3°
